This is the latest recevied weather packets stored in our database for station/object VK5GR-12. If no packets are shown the sender has not sent any weather packets the latest 10 day(s).
| Time | Temp. | Humidity | Pressure | Rain* | Wind** | Luminosity | Snow |
|---|---|---|---|---|---|---|---|
| 1778210022 | 15.56° C | 88% | 1029.9 hPa | 1.78 mm | - | 112 W/m² | - |
| 1778209118 | 16.11° C | 88% | 1029.9 hPa | 0 mm | - | 117 W/m² | - |
| 1778208214 | 15.56° C | 90% | 1030.2 hPa | 0 mm | - | 239 W/m² | - |
| 1778207311 | 15° C | 89% | 1030.5 hPa | 0 mm | - | 218 W/m² | - |
| 1778206406 | 15.56° C | 90% | 1030.6 hPa | 0 mm | - | 690 W/m² | - |
| 1778205502 | 15° C | 89% | 1030.7 hPa | 0 mm | - | 79 W/m² | - |
| 1778204600 | 15.56° C | 86% | 1030.8 hPa | 0 mm | - | 108 W/m² | - |
| 1778203695 | 15.56° C | 88% | 1031.1 hPa | 0 mm | - | 520 W/m² | - |
| 1778202792 | 15° C | 86% | 1031.3 hPa | 0 mm | - | 131 W/m² | - |
| 1778201889 | 15° C | 83% | 1031.1 hPa | 0 mm | - | 148 W/m² | - |
| 1778200984 | 15° C | 85% | 1031.2 hPa | 0 mm | - | 182 W/m² | - |
| 1778200081 | 13.89° C | 87% | 1031.3 hPa | 0 mm | - | 141 W/m² | - |
| 1778199175 | 13.89° C | 88% | 1031.2 hPa | 0 mm | - | 118 W/m² | - |
| 1778198271 | 13.89° C | 87% | 1031.2 hPa | 0 mm | - | 87 W/m² | - |
| 1778197368 | 13.89° C | 85% | 1031.2 hPa | 0 mm | - | 65 W/m² | - |
| 1778196465 | 13.89° C | 84% | 1031 hPa | 0 mm | - | 58 W/m² | - |
| 1778195561 | 13.89° C | 82% | 1030.9 hPa | 0 mm | - | 36 W/m² | - |
| 1778194660 | 13.89° C | 83% | 1030.7 hPa | 0 mm | - | 33 W/m² | - |
| 1778193761 | 13.89° C | 83% | 1030.5 hPa | 0 mm | - | 27 W/m² | - |
| 1778192857 | 13.33° C | 83% | 1030.6 hPa | 0 mm | - | 19 W/m² | - |
| 1778191952 | 13.33° C | 83% | 1030.4 hPa | 0 mm | - | 19 W/m² | - |
| 1778191048 | 13.33° C | 83% | 1030.1 hPa | 0 mm | - | 8 W/m² | - |
| 1778190146 | 12.78° C | 83% | 1030 hPa | 0 mm | - | 4 W/m² | - |
| 1778189246 | 12.78° C | 82% | 1029.8 hPa | 0 mm | - | 1 W/m² | - |
| 1778188342 | 12.78° C | 83% | 1029.6 hPa | 0 mm | - | 0 W/m² | - |
* Rain latest hour (hover to see other rain measurements)
** Current wind speed in m/s (hover to see current wind gust speed)